Altus AFB, OK

1:17 PM CDT on May 24, 2017 (GMT -0500)
Altus Air Force Base

Weather History for KLTS - June, 2014

Change the Weather History Date:

Wednesday, June 25, 2014

  Actual Average Record
Temperature  
Mean Temperature 76 °F -  
Max Temperature 88 °F 89 °F 109 °F (2011)
Min Temperature 65 °F 68 °F 65 °F (2014)
Cooling Degree Days 12    
Growing Degree Days 26 (Base 50)    
Moisture  
Dew Point 69 °F    
Average Humidity 80    
Maximum Humidity 100    
Minimum Humidity 55    
Precipitation  
Precipitation 0.00 in - - ()
Sea Level Pressure  
Sea Level Pressure 29.97 in    
Wind  
Wind Speed 8 mph (SSE)    
Max Wind Speed 14 mph    
Max Gust Speed 24 mph    
Visibility 10 miles    
Events      
Averages and records for this station are not official NWS values.
T = Trace of Precipitation, MM = Missing Value Source: NWS Daily Summary

Daily Weather History Graph

Daily Weather History Graph

Search for Another Location

Airport or City:

Trip Planner

Search our weather history database for the weather conditions in past years. The results will help you decide how hot, cold, wet, or windy it might be!

Date:

Astronomy

Jun. 25, 2014 Rise Set
Actual Time 6:25 AM CDT 8:53 PM CDT
Civil Twilight 5:55 AM CDT 9:23 PM CDT
Nautical Twilight 5:19 AM CDT 9:59 PM CDT
Astronomical Twilight 4:39 AM CDT 10:40 PM CDT
Moon 5:14 AM CDT (6/25) 7:31 PM CDT (6/25)
Length of Visible Light 15h 27m
Length of Day
14h 28m
Waning Crescent, 3% of the Moon is Illuminated
Jun 25
Waning Crescent
Jun 27
New
Jul 5
First Quarter
Jul 12
Full
Jul 18
Last Quarter

Hourly Weather History & Observations

Time (CDT) Temp. Heat Index Dew Point Humidity Pressure Visibility Wind Dir Wind Speed Gust Speed Precip Events Conditions
12:58 AM 67.6 °F - 67.3 °F 99% 30.02 in 10.0 mi ENE 6.9 mph - N/A   Clear
1:58 AM 65.7 °F - 65.7 °F 100% 30.04 in 10.0 mi NE 5.8 mph - N/A   Clear
2:58 AM 68.5 °F - 67.6 °F 97% 30.04 in 10.0 mi WNW 5.8 mph - N/A   Clear
3:58 AM 67.5 °F - 67.5 °F 100% 30.00 in 10.0 mi SW 2.3 mph - N/A   Clear
4:58 AM 66.6 °F - 66.6 °F 100% 29.95 in 10.0 mi SSE 11.5 mph - N/A   Partly Cloudy
5:58 AM 67.1 °F - 67.1 °F 100% 29.97 in 10.0 mi SSE 11.5 mph - N/A   Overcast
6:58 AM 68.0 °F - 67.1 °F 97% 30.04 in 10.0 mi WNW 3.5 mph - N/A   Clear
7:58 AM 70.2 °F - 67.6 °F 92% 30.04 in 10.0 mi Variable 1.2 mph - N/A   Mostly Cloudy
8:58 AM 72.7 °F - 67.8 °F 85% 30.05 in 10.0 mi Variable 5.8 mph - N/A   Partly Cloudy
9:58 AM 74.5 °F - 67.6 °F 79% 30.02 in 10.0 mi South 12.7 mph - N/A   Partly Cloudy
10:58 AM 77.4 °F - 68.9 °F 75% 29.97 in 10.0 mi SE 13.8 mph - N/A   Clear
11:58 AM 78.3 °F - 68.9 °F 73% 29.99 in 10.0 mi South 12.7 mph - N/A   Partly Cloudy
12:58 PM 79.3 °F - 69.6 °F 72% 30.00 in 10.0 mi SSW 10.4 mph - N/A   Mostly Cloudy
1:58 PM 82.2 °F 86.0 °F 70.0 °F 66% 29.97 in 10.0 mi SSW 9.2 mph - N/A   Scattered Clouds
2:58 PM 84.2 °F 89.9 °F 72.0 °F 67% 29.95 in 10.0 mi Variable 5.8 mph - N/A   Clear
3:58 PM 86.2 °F 93.0 °F 72.5 °F 64% 29.93 in 10.0 mi SE 5.8 mph - N/A   Clear
4:58 PM 87.8 °F 94.7 °F 72.3 °F 60% 29.90 in 10.0 mi ESE 6.9 mph - N/A   Clear
5:58 PM 88.2 °F 93.3 °F 70.2 °F 55% 29.88 in 10.0 mi South 8.1 mph - N/A   Clear
6:58 PM 87.3 °F 92.8 °F 70.7 °F 58% 29.87 in 10.0 mi SSE 9.2 mph - N/A   Clear
7:58 PM 84.7 °F 89.4 °F 70.5 °F 62% 29.90 in 10.0 mi SE 9.2 mph - N/A   Clear
8:58 PM 80.6 °F 83.9 °F 69.8 °F 70% 29.91 in 10.0 mi SSE 13.8 mph 24.2 mph N/A   Clear
9:58 PM 75.7 °F - 67.5 °F 75% 29.94 in 10.0 mi SE 8.1 mph - N/A   Clear
10:58 PM 73.2 °F - 68.9 °F 86% 29.95 in 10.0 mi SE 6.9 mph - N/A   Clear
11:58 PM 72.7 °F - 68.7 °F 87% 29.94 in 10.0 mi SE 6.9 mph - N/A   Clear